This is the latest recevied weather packets stored in our database for station/object KB0Y. If no packets are shown the sender has not sent any weather packets the latest 10 day(s).
| Time | Temp. | Humidity | Pressure | Rain* | Wind** | Luminosity | Snow |
|---|---|---|---|---|---|---|---|
| 1788539365 | 30° C | 87% | 1020.6 hPa | 0 mm | - | 300 W/m² | - |
| 1788539061 | 29.44° C | 88% | 1020.6 hPa | 0 mm | - | 161 W/m² | - |
| 1788538751 | 29.44° C | 87% | 1020.6 hPa | 0 mm | - | 157 W/m² | - |
| 1788538446 | 29.44° C | 86% | 1021 hPa | 0 mm | - | 159 W/m² | - |
| 1788538142 | 28.89° C | 84% | 1021 hPa | 0 mm | - | 511 W/m² | - |
| 1788537837 | 28.89° C | 87% | 1020.6 hPa | 0 mm | - | 495 W/m² | - |
| 1788537532 | 28.33° C | 88% | 1020.6 hPa | 0 mm | - | 479 W/m² | - |
| 1788537226 | 27.78° C | 89% | 1020.6 hPa | 0 mm | - | 296 W/m² | - |
| 1788536925 | 27.78° C | 90% | 1020.6 hPa | 0 mm | - | 449 W/m² | - |
| 1788536620 | 27.22° C | 91% | 1020.6 hPa | 0 mm | - | 368 W/m² | - |
| 1788536315 | 26.67° C | 91% | 1021 hPa | 0 mm | - | 219 W/m² | - |
| 1788536010 | 26.67° C | 92% | 1020.6 hPa | 0 mm | - | 166 W/m² | - |
| 1788535707 | 26.67° C | 92% | 1020.6 hPa | 0 mm | - | 183 W/m² | - |
| 1788535401 | 26.11° C | 93% | 1020.6 hPa | 0 mm | - | 167 W/m² | - |
| 1788535096 | 26.11° C | 95% | 1020.6 hPa | 0 mm | - | 478 W/m² | - |
| 1788534795 | 25.56° C | 97% | 1020.6 hPa | 0 mm | - | 163 W/m² | - |
| 1788534491 | 25.56° C | 97% | 1020.6 hPa | 0 mm | - | 273 W/m² | - |
| 1788534187 | 25.56° C | 97% | 1020.6 hPa | 0 mm | - | 229 W/m² | - |
| 1788533884 | 25.56° C | 97% | 1020.6 hPa | 0 mm | - | 245 W/m² | - |
| 1788533580 | 25.56° C | 97% | 1020.3 hPa | 0 mm | - | 181 W/m² | - |
| 1788533275 | 25.56° C | 97% | 1020.6 hPa | 0 mm | - | 115 W/m² | - |
| 1788532971 | 25.56° C | 97% | 1020.3 hPa | 0 mm | - | 105 W/m² | - |
| 1788532667 | 25° C | 97% | 1020.3 hPa | 0 mm | - | 84 W/m² | - |
| 1788532363 | 25° C | 98% | 1020.6 hPa | 0 mm | - | 66 W/m² | - |
| 1788532059 | 25° C | 98% | 1020.3 hPa | 0 mm | - | 56 W/m² | - |
* Rain latest hour (hover to see other rain measurements)
** Current wind speed in m/s (hover to see current wind gust speed)